Погода в Сарженке

Россия / Санкт-Петербург и Ленинградская область     60°11′59″N   30°14′32″E
темп.,
°C
ветер,
м/с
пор.,
м/с
влажн.,
%
обл.,
%
осадки,
мм/ч
давл.,
гПа
погр.,
м
3 августа, вт
вт300:00+15с3799100 10.8 993427
03:00+13сз61397100 14.9 993830
06:00+13з5129597 3.5 995832
09:00+15зюз6118628 4.2 996950
12:00+17зюз711840 1.4 9981058
15:00+18зюз610775 2.6 10001107
18:00+15з59835 1.2 10021021
21:00+12з278714 1.3 1005234
4 августа, ср
ср400:00+10з22925 0.0 100722
03:00+9зюз25914 0.1 100992
06:00+9зюз26821 0.0 1010115
09:00+16зюз46520 0.0 1012846
12:00+19зюз56425 0.0 10132149
15:00+19зюз55423 0.0 10141810
18:00+18зюз45456 0.0 10151032
21:00+13зюз23718 0.0 101653
5 августа, чт
чт500:00+11зюз238054 0.0 101644
03:00+12юз238086 0.0 101774
06:00+12ююз127282 0.0 101738
09:00+15ююз115682 0.0 1018220
12:00+21вюв22366 0.0 10182027
15:00+21в3236100 0.0 10171992
18:00+18в3545100 0.0 1017383
21:00+15всв276497 0.0 1017183
6 августа, пт
пт600:00+11св26725 0.0 1017100
03:00+11св377558 0.0 1017114
06:00+13св388474 0.0 1017242
09:00+17всв46605 0.0 1016527
12:00+20всв58450 0.0 10161485
15:00+21всв584111 0.0 10151859
18:00+20св59426 0.0 10141138
21:00+17всв51254100 0.0 1014472
7 августа, сб
сб700:00+15всв51466100 0.0 1014557
03:00+15всв51571100 0.0 1013791
06:00+14всв7157498 0.0 1012945
09:00+16в71467100 0.1 1012983
12:00+12в71595100 5.4 1012798
15:00+13в71495100 6.1 1011882
18:00+13всв61397100 1.1 1011755
21:00+14в51198100 2.3 1010735